Previsão horária em Alimovskiy

Hoje, 16 Janeiro, Sábado

Tempo Temperatura Precipitação Vento Pressão Humidade
00:00 -12°C° 0.2 mm 5 m/s 745 mmHg 94%
01:00 -12°C° 0 mm 5 m/s 745 mmHg 94%
02:00 -12°C° 0 mm 4 m/s 745 mmHg 94%
03:00 -14°C° 0 mm 4 m/s 745 mmHg 94%
04:00 -14°C° 0 mm 4 m/s 745 mmHg 95%
05:00 -14°C° 0 mm 4 m/s 745 mmHg 95%
06:00 -12°C° 0 mm 3 m/s 745 mmHg 95%
07:00 -12°C° 0.1 mm 4 m/s 745 mmHg 94%
08:00 -12°C° 0.1 mm 5 m/s 745 mmHg 93%
09:00 -12°C° 0 mm 7 m/s 745 mmHg 92%
10:00 -13°C° 0 mm 7 m/s 746 mmHg 91%
11:00 -15°C° 0 mm 8 m/s 746 mmHg 89%
12:00 -16°C° 0 mm 8 m/s 747 mmHg 88%
13:00 -17°C° 0 mm 8 m/s 747 mmHg 88%
14:00 -17°C° 0 mm 7 m/s 747 mmHg 87%
15:00 -18°C° 0 mm 7 m/s 748 mmHg 86%
16:00 -18°C° 0 mm 7 m/s 748 mmHg 87%
17:00 -18°C° 0 mm 6 m/s 749 mmHg 88%
18:00 -18°C° 0 mm 6 m/s 749 mmHg 89%
19:00 -20°C° 0 mm 6 m/s 749 mmHg 90%
20:00 -19°C° 0 mm 5 m/s 750 mmHg 91%
21:00 -20°C° 0 mm 5 m/s 750 mmHg 92%
22:00 -20°C° 0 mm 5 m/s 750 mmHg 93%
23:00 -20°C° 0 mm 4 m/s 750 mmHg 94%

Amanhã, 17 Janeiro, Domingo

Tempo Temperatura Precipitação Vento Pressão Humidade
00:00 -20°C° 0 mm 4 m/s 750 mmHg 95%
01:00 -22°C° 0 mm 4 m/s 750 mmHg 95%
02:00 -21°C° 0 mm 3 m/s 750 mmHg 95%
03:00 -21°C° 0 mm 3 m/s 751 mmHg 96%
04:00 -22°C° 0 mm 3 m/s 750 mmHg 96%
05:00 -20°C° 0 mm 2 m/s 750 mmHg 97%
06:00 -20°C° 0 mm 2 m/s 750 mmHg 97%
07:00 -20°C° 0 mm 2 m/s 750 mmHg 96%
08:00 -20°C° 0 mm 2 m/s 750 mmHg 95%
09:00 -20°C° 0 mm 2 m/s 751 mmHg 94%
10:00 -17°C° 0 mm 1 m/s 751 mmHg 92%
11:00 -16°C° 0 mm 1 m/s 751 mmHg 90%
12:00 -14°C° 0 mm 1 m/s 751 mmHg 87%
13:00 -14°C° 0 mm 1 m/s 751 mmHg 88%
14:00 -14°C° 0 mm 1 m/s 751 mmHg 89%
15:00 -14°C° 0 mm 1 m/s 750 mmHg 90%
16:00 -14°C° 0 mm 1 m/s 751 mmHg 90%
17:00 -17°C° 0 mm 2 m/s 751 mmHg 91%
18:00 -17°C° 0 mm 2 m/s 751 mmHg 91%
19:00 -17°C° 0 mm 2 m/s 751 mmHg 91%
20:00 -18°C° 0 mm 2 m/s 751 mmHg 91%
21:00 -18°C° 0 mm 2 m/s 750 mmHg 91%
22:00 -19°C° 0 mm 3 m/s 750 mmHg 91%
23:00 -19°C° 0 mm 3 m/s 750 mmHg 91%

Depois de amanhã, 18 Janeiro, Segunda-feira

Tempo Temperatura Precipitação Vento Pressão Humidade
00:00 -21°C° 0 mm 3 m/s 750 mmHg 91%
01:00 -21°C° 0 mm 3 m/s 750 mmHg 92%
02:00 -21°C° 0 mm 3 m/s 750 mmHg 92%
03:00 -21°C° 0 mm 3 m/s 750 mmHg 92%
04:00 -19°C° 0.1 mm 3 m/s 750 mmHg 93%
05:00 -19°C° 0.1 mm 3 m/s 750 mmHg 94%
06:00 -19°C° 0.1 mm 3 m/s 750 mmHg 94%
07:00 -19°C° 0.6 mm 3 m/s 750 mmHg 95%
08:00 -19°C° 0.6 mm 3 m/s 750 mmHg 95%
09:00 -19°C° 0.6 mm 3 m/s 751 mmHg 96%
10:00 -18°C° 0.5 mm 3 m/s 751 mmHg 95%
11:00 -18°C° 0.5 mm 3 m/s 751 mmHg 95%
12:00 -17°C° 0.5 mm 3 m/s 751 mmHg 94%
13:00 -17°C° 0.2 mm 3 m/s 751 mmHg 94%
14:00 -17°C° 0.2 mm 3 m/s 751 mmHg 94%
15:00 -16°C° 0.2 mm 3 m/s 750 mmHg 94%
16:00 -16°C° 0.1 mm 2 m/s 751 mmHg 95%
17:00 -16°C° 0.1 mm 2 m/s 751 mmHg 95%
18:00 -16°C° 0.1 mm 2 m/s 751 mmHg 96%
19:00 -17°C° 0.1 mm 2 m/s 751 mmHg 96%
20:00 -17°C° 0.1 mm 2 m/s 751 mmHg 96%
21:00 -17°C° 0.1 mm 2 m/s 752 mmHg 96%
22:00 -18°C° 0 mm 2 m/s 752 mmHg 96%
23:00 -16°C° 0 mm 1 m/s 752 mmHg 96%

19 Janeiro, Terça-feira

Tempo Temperatura Precipitação Vento Pressão Humidade
00:00 -16°C° 0 mm 1 m/s 752 mmHg 96%
01:00 -17°C° 0 mm 1 m/s 752 mmHg 96%
02:00 -19°C° 0 mm 2 m/s 752 mmHg 96%
03:00 -20°C° 0 mm 2 m/s 752 mmHg 96%
04:00 -20°C° 0 mm 2 m/s 752 mmHg 96%
05:00 -19°C° 0 mm 2 m/s 752 mmHg 96%
06:00 -19°C° 0 mm 2 m/s 752 mmHg 96%
07:00 -19°C° 0 mm 2 m/s 752 mmHg 96%
08:00 -19°C° 0 mm 2 m/s 752 mmHg 96%
09:00 -19°C° 0 mm 2 m/s 752 mmHg 96%
10:00 -18°C° 0 mm 2 m/s 752 mmHg 95%
11:00 -18°C° 0 mm 2 m/s 752 mmHg 94%
12:00 -17°C° 0 mm 2 m/s 752 mmHg 93%
13:00 -17°C° 0 mm 2 m/s 752 mmHg 93%
14:00 -17°C° 0 mm 2 m/s 751 mmHg 93%
15:00 -17°C° 0 mm 2 m/s 751 mmHg 94%
16:00 -18°C° 0 mm 2 m/s 751 mmHg 95%
17:00 -22°C° 0 mm 3 m/s 752 mmHg 96%
18:00 -23°C° 0 mm 3 m/s 752 mmHg 98%
19:00 -23°C° 0 mm 3 m/s 752 mmHg 97%
20:00 -23°C° 0 mm 3 m/s 753 mmHg 96%
21:00 -23°C° 0 mm 3 m/s 753 mmHg 96%
22:00 -23°C° 0 mm 3 m/s 753 mmHg 96%
23:00 -23°C° 0 mm 3 m/s 753 mmHg 96%

20 Janeiro, Quarta-feira

Tempo Temperatura Precipitação Vento Pressão Humidade
00:00 -23°C° 0 mm 3 m/s 753 mmHg 96%
01:00 -23°C° 0 mm 3 m/s 754 mmHg 97%
02:00 -24°C° 0 mm 3 m/s 754 mmHg 97%
03:00 -25°C° 0 mm 3 m/s 754 mmHg 98%
04:00 -25°C° 0 mm 3 m/s 755 mmHg 97%
05:00 -26°C° 0 mm 3 m/s 755 mmHg 97%
06:00 -26°C° 0 mm 3 m/s 755 mmHg 97%
07:00 -27°C° 0 mm 3 m/s 755 mmHg 97%
08:00 -27°C° 0 mm 3 m/s 756 mmHg 96%
09:00 -27°C° 0 mm 3 m/s 756 mmHg 96%
10:00 -26°C° 0 mm 3 m/s 757 mmHg 95%
11:00 -24°C° 0 mm 3 m/s 757 mmHg 94%
12:00 -23°C° 0 mm 3 m/s 757 mmHg 93%
13:00 -22°C° 0 mm 3 m/s 757 mmHg 93%
14:00 -22°C° 0 mm 3 m/s 757 mmHg 92%
15:00 -21°C° 0 mm 3 m/s 757 mmHg 92%
16:00 -22°C° 0 mm 3 m/s 758 mmHg 93%
17:00 -23°C° 0 mm 3 m/s 758 mmHg 95%
18:00 -24°C° 0 mm 3 m/s 758 mmHg 96%
19:00 -23°C° 0 mm 2 m/s 759 mmHg 96%
20:00 -23°C° 0 mm 2 m/s 759 mmHg 96%
21:00 -24°C° 0 mm 2 m/s 759 mmHg 96%
22:00 -24°C° 0 mm 2 m/s 760 mmHg 96%
23:00 -24°C° 0 mm 2 m/s 760 mmHg 96%

21 Janeiro, Quinta-feira

Tempo Temperatura Precipitação Vento Pressão Humidade
00:00 -24°C° 0 mm 2 m/s 760 mmHg 96%
01:00 -23°C° 0 mm 2 m/s 760 mmHg 97%
02:00 -23°C° 0 mm 2 m/s 761 mmHg 97%
03:00 -23°C° 0 mm 2 m/s 761 mmHg 97%
04:00 -23°C° 0 mm 2 m/s 761 mmHg 97%
05:00 -23°C° 0 mm 2 m/s 761 mmHg 97%
06:00 -23°C° 0 mm 2 m/s 761 mmHg 98%
07:00 -21°C° 0 mm 2 m/s 761 mmHg 97%
08:00 -23°C° 0 mm 3 m/s 761 mmHg 96%
09:00 -22°C° 0 mm 3 m/s 761 mmHg 96%
10:00 -19°C° 0 mm 3 m/s 761 mmHg 94%
11:00 -18°C° 0 mm 4 m/s 761 mmHg 92%
12:00 -16°C° 0 mm 4 m/s 761 mmHg 90%
13:00 -15°C° 0 mm 4 m/s 761 mmHg 91%
14:00 -15°C° 0 mm 5 m/s 760 mmHg 92%
15:00 -14°C° 0 mm 5 m/s 760 mmHg 92%
16:00 -14°C° 0 mm 5 m/s 759 mmHg 92%
17:00 -14°C° 0 mm 5 m/s 759 mmHg 92%
18:00 -15°C° 0 mm 6 m/s 759 mmHg 92%
19:00 -14°C° 0 mm 6 m/s 759 mmHg 93%
20:00 -12°C° 0 mm 6 m/s 758 mmHg 93%
21:00 -11°C° 0 mm 6 m/s 758 mmHg 94%
22:00 -10°C° 0 mm 6 m/s 758 mmHg 93%
23:00 -9°C° 0 mm 6 m/s 757 mmHg 93%
Mostrar mais

Necessitamos do seu Consentimento

A Meteoprog e os seus Fornecedores de Serviços podem armazenar e aceder a dados pessoais como cookies, identificadores do dispositivo ou outras tecnologias semelhantes existentes no seu dispositivo e processar estes dados para personalizar conteúdos e anúncios, assim como funcionalidades nas redes sociais e análise de tráfego.

  • Armazenar e/ou aceder a informações no seu dispositivo

    Os cookies, identificadores do dispositivo ou outras informações podem ser armazenados ou acedidos no seu dispositivo, para os fins acima indicados.

  • Anúncios e conteúdos personalizados, medição de anúncios e conteúdos, dados sobre o público-alvo e desenvolvimento de produtos

    Os anúncios e os conteúdos podem ser personalizados com base num perfil. Podem ser adicionados dados adicionais para uma maior personalização dos anúncios e dos conteúdos. A eficácia dos anúncios e dos conteúdos pode ser medida. Podem ser obtidas informações sobre o público que visualizou os anúncios e os conteúdos. Estes dados podem ser usados para desenvolver ou melhorar sistemas, softwares ou a experiência do utilizador.

Ao clicar em "Eu concordo”, permitirá o uso de cookies, identificadores do dispositivo e web beacons mencionados ou outras tecnologias semelhantes. As configurações do navegador do seu dispositivo podem ser alteradas.

Para certos fins, podem ser invocados interesses legítimos ao invés de consentimento. Pode ler mais informação sobre este assunto na nossa Política de Privacidade e Cookies.